FW7359 Weather Reports


Display with metric or nautical units.
time (UTC)temp
F
wind
direction
speed
MPH
gust
MPH
rain 1hr
in
rain 24hr
in
rain mn
in
humidity
%
barometer
mb
20260502214548 71 84 6.0 8.0 0.00 0.00 0.00 39 1022.3
20260502213516 70 39 4.0 10.0 0.00 0.00 0.00 40 1022.2
20260502212522 71 52 6.0 12.0 0.00 0.00 0.00 39 1022.5
20260502211528 72 23 5.0 9.0 0.00 0.00 0.00 38 1022.7
20260502210516 71 20 3.0 7.0 0.00 0.00 0.00 40 1022.9
20260502205522 70 35 3.0 9.0 0.00 0.00 0.00 41 1023.2
20260502204528 68 4 5.0 6.0 0.00 0.00 0.00 41 1023.0
20260502203535 68 23 6.0 6.0 0.00 0.00 0.00 42 1022.9
20260502202522 67 31 5.0 10.0 0.00 0.00 0.00 43 1023.2
20260502201527 67 2 5.0 8.0 0.00 0.00 0.00 42 1023.3
20260502200516 68 15 4.0 7.0 0.00 0.00 0.00 42 1023.4
20260502195523 67 36 4.0 7.0 0.00 0.00 0.00 42 1023.2
20260502194527 68 24 5.0 9.0 0.00 0.00 0.00 42 1023.3
20260502193553 69 101 4.0 6.0 0.00 0.00 0.00 41 1023.9
20260502192522 68 58 3.0 8.0 0.00 0.00 0.00 40 1023.9
20260502191547 68 58 4.0 10.0 0.00 0.00 0.00 41 1023.9
20260502190551 69 103 5.0 7.0 0.00 0.00 0.00 40 1024.0
20260502185542 68 89 4.0 6.0 0.00 0.00 0.00 40 1024.2
20260502184545 68 55 4.0 8.0 0.00 0.00 0.00 40 1024.3
20260502183552 67 291 2.0 6.0 0.00 0.00 0.00 41 1024.6
20260502182522 67 84 4.0 8.0 0.00 0.00 0.00 43 1024.5
20260502181546 67 88 5.0 7.0 0.00 0.00 0.00 43 1024.7
20260502180531 66 358 4.0 7.0 0.00 0.00 0.00 44 1024.8
20260502163531 62 66 2.0 4.0 0.00 0.00 0.00 48 1025.5
20260502162537 62 346 3.0 5.0 0.00 0.00 0.00 47 1025.4
20260502161525 62 4 2.0 4.0 0.00 0.00 0.00 47 1025.5
20260502160531 61 122 1.0 3.0 0.00 0.00 0.00 47 1025.8
20260502151525 58 110 2.0 3.0 0.00 0.00 0.00 47 1026.1
20260502150551 56 240 2.0 3.0 0.00 0.00 0.00 49 1025.9
20260502130530 39 256 4.0 4.0 0.00 0.00 0.00 77 1024.4
20260502123529 36 0.0 0.0 0.00 0.00 0.00 80 1023.9
20260502122517 36 248 0.0 2.0 0.00 0.00 0.00 80 1024.0
20260502121524 36 252 2.0 5.0 0.00 0.00 0.00 80 1024.2
20260502120530 36 225 0.0 1.0 0.00 0.00 0.00 80 1024.1
20260502115518 36 239 0.0 2.0 0.00 0.00 0.00 79 1024.3
20260502114523 36 0.0 1.0 0.00 0.00 0.00 79 1024.0
20260502113549 36 250 2.0 2.0 0.00 0.00 0.00 79 1024.3
20260502112517 36 236 2.0 3.0 0.00 0.00 0.00 78 1024.0
20260502111524 37 0.0 0.0 0.00 0.00 0.00 76 1024.0
20260502110530 38 0.0 0.0 0.00 0.00 0.00 73 1024.2
20260502105518 38 127 1.0 3.0 0.00 0.00 0.00 73 1024.1
20260502104523 39 117 1.0 2.0 0.00 0.00 0.00 71 1023.9
20260502103530 40 156 1.0 3.0 0.00 0.00 0.00 69 1024.2
20260502102517 41 213 3.0 4.0 0.00 0.00 0.00 67 1024.0
20260502101523 41 240 4.0 5.0 0.00 0.00 0.00 67 1024.1
20260502100529 42 229 4.0 6.0 0.00 0.00 0.00 65 1024.0
20260502091522 43 249 4.0 5.0 0.00 0.00 0.00 62 1023.9
20260502090548 44 247 6.0 7.0 0.00 0.00 0.00 60 1024.1
20260502071522 47 228 6.0 7.0 0.00 0.00 0.00 57 1023.3
20260502070528 47 231 5.0 6.0 0.00 0.00 0.00 57 1023.3
20260502065516 47 227 4.0 5.0 0.00 0.00 0.00 57 1023.3
20260502064522 47 194 2.0 3.0 0.00 0.00 0.00 56 1023.0
20260502063527 48 222 3.0 7.0 0.00 0.00 0.00 55 1023.1
20260502062515 48 248 6.0 7.0 0.00 0.00 0.00 57 1022.5
20260502060527 48 253 3.0 7.0 0.00 0.00 0.00 56 1022.4
20260502055532 49 265 5.0 7.0 0.00 0.00 0.00 55 1022.5
20260502054538 49 237 6.0 10.0 0.00 0.00 0.00 55 1022.4
20260502053544 49 249 7.0 9.0 0.00 0.00 0.00 55 1022.4
20260502052531 50 248 6.0 9.0 0.00 0.00 0.00 54 1022.3
20260502051650 51 240 7.0 9.0 0.00 0.00 0.00 53 1022.4
20260502050545 52 260 6.0 8.0 0.00 0.00 0.00 52 1022.3
20260502045531 51 253 8.0 9.0 0.00 0.00 0.00 53 1022.2
20260502044557 52 267 8.0 11.0 0.00 0.00 0.00 53 1022.0
20260502043525 53 257 6.0 8.0 0.00 0.00 0.00 51 1022.2
20260502042531 53 260 7.0 8.0 0.00 0.00 0.00 52 1021.9
20260502041521 53 265 7.0 8.0 0.00 0.00 0.00 51 1021.9
20260502040524 54 261 7.0 10.0 0.00 0.00 0.00 50 1021.6
20260502035530 55 249 7.0 10.0 0.00 0.00 0.00 50 1021.6
20260502034536 55 270 6.0 8.0 0.00 0.00 0.00 48 1021.3
20260502033544 56 268 5.0 6.0 0.00 0.00 0.00 47 1021.2
20260502032530 57 238 5.0 6.0 0.00 0.00 0.00 47 1021.2
20260502031518 57 264 5.0 6.0 0.00 0.00 0.00 46 1021.2
20260502030524 58 241 3.0 4.0 0.00 0.00 0.00 44 1020.9
20260502025529 59 244 2.0 3.0 0.00 0.00 0.00 44 1020.9
20260502024517 63 275 2.0 3.0 0.00 0.00 0.00 39 1021.1
20260502023523 65 225 2.0 3.0 0.00 0.00 0.00 36 1021.2
20260502022529 66 156 3.0 5.0 0.00 0.00 0.00 32 1020.8
20260502021517 66 137 0.0 4.0 0.00 0.00 0.00 34 1020.8
20260502020527 67 107 3.0 4.0 0.00 0.00 0.00 34 1020.8
20260502015529 69 113 3.0 3.0 0.00 0.00 0.00 31 1020.7
20260502014518 70 71 1.0 3.0 0.00 0.00 0.00 30 1020.9
20260502013523 71 100 2.0 3.0 0.00 0.00 0.00 29 1020.4
20260502012529 71 87 1.0 5.0 0.00 0.00 0.00 28 1020.3
20260502011537 71 40 2.0 9.0 0.00 0.00 0.00 28 1020.2
20260502010523 71 89 3.0 6.0 0.00 0.00 0.00 30 1020.4
20260502005529 72 103 3.0 5.0 0.00 0.00 0.00 29 1020.4
20260502004516 73 96 6.0 8.0 0.00 0.00 0.00 28 1020.1
20260502003542 74 69 3.0 6.0 0.00 0.00 0.00 28 1020.1
20260502002528 74 82 2.0 4.0 0.00 0.00 0.00 27 1020.1
20260502001516 74 75 3.0 4.0 0.00 0.00 0.00 28 1020.4
20260502000522 76 310 5.0 7.0 0.00 0.00 0.00 25 1020.6
20260501235528 76 8 4.0 6.0 0.00 0.00 0.00 24 1020.5
20260501234516 76 346 3.0 12.0 0.00 0.00 0.00 23 1020.9
20260501233521 77 257 5.0 7.0 0.00 0.00 0.00 23 1020.9
20260501232528 76 327 2.0 11.0 0.00 0.00 0.00 22 1020.9
20260501231515 76 274 4.0 6.0 0.00 0.00 0.00 22 1021.0
20260501230541 77 274 5.0 9.0 0.00 0.00 0.00 22 1021.1
20260501225527 75 293 3.0 14.0 0.00 0.00 0.00 21 1021.2
20260501224515 76 274 8.0 12.0 0.00 0.00 0.00 22 1021.4
20260501223522 76 273 6.0 10.0 0.00 0.00 0.00 21 1021.5
20260501222526 75 275 7.0 11.0 0.00 0.00 0.00 20 1021.8
20260501221535 75 245 10.0 15.0 0.00 0.00 0.00 19 1021.8
20260501220522 76 255 8.0 11.0 0.00 0.00 0.00 20 1022.0
20260501215526 76 243 9.0 15.0 0.00 0.00 0.00 19 1021.8